This demonstration page uses our WeatherBlox Daily Observations layout. Learn more.

Hourly Observations for December 18, 2017

Temp ( °F °C ) Dew Point ( °F °C ) Humidity (%) Winds ( mph kmh ) Pressure ( in mb ) Visibility ( mi km ) Precip ( " mm )
12:15 am 00:15 Clear 28 -2 28 -2.5 96 96 WSW 7 11 30.09 1019 10 16.09344 0 0
12:35 am 00:35 Clear 29 -1.5 28 -2 96 96 SW 7 11 30.09 1019 10 16.09344 0 0
12:55 am 00:55 Clear 30 -1.2 28 -2 94 94 SW 8 13 30.09 1019 10 16.09344 0 0
1:15 am 01:15 Clear 30 -1.3 29 -1.9 96 96 WSW 8 13 30.09 1019 10 16.09344 0 0
1:35 am 01:35 Clear 29 -1.6 28 -2.4 94 94 WSW 8 13 30.09 1019 10 16.09344 0 0
1:55 am 01:55 Clear 30 -1.1 28 -2 94 94 WSW 10 17 30.09 1019 10 16.09344 0 0
2:15 am 02:15 Clear 30 -1 28 -2.3 91 91 WSW 9 15 30.09 1019 10 16.09344 0 0
2:35 am 02:35 Clear 30 -1 28 -2.4 90 90 WSW 12 19 30.09 1019 10 16.09344 0 0
2:55 am 02:55 Clear 30 -1 28 -2.5 90 90 WSW 12 19 30.09 1019 10 16.09344 0 0
3:15 am 03:15 Clear 30 -1.1 27 -2.8 88 88 WSW 14 22 30.09 1019 10 16.09344 0 0
3:35 am 03:35 Clear 30 -1.2 27 -3 88 88 WSW 14 22 30.06 1018 10 16.09344 0 0
3:55 am 03:55 Clear 30 -1.2 26 -3.2 86 86 W 14 22 30.06 1018 10 16.09344 0 0
4:15 am 04:15 Clear 28 -2.1 25 -3.7 89 89 W 12 19 30.06 1018 10 16.09344 0 0
4:35 am 04:35 Clear 27 -2.6 25 -4 90 90 W 13 20 30.09 1019 10 16.09344 0 0
4:55 am 04:55 Clear 27 -3 24 -4.2 92 92 W 10 17 30.09 1019 10 16.09344 0 0
5:15 am 05:15 Clear 26 -3.5 24 -4.5 93 93 WSW 9 15 30.09 1019 10 16.09344 0 0
5:35 am 05:35 Clear 25 -3.8 23 -5 91 91 WSW 8 13 30.12 1020 10 16.09344 0 0
5:55 am 05:55 Clear 25 -4 23 -5.1 92 92 W 10 17 30.12 1020 10 16.09344 0 0
6:15 am 06:15 Clear 24 -4.2 23 -5.2 93 93 W 9 15 30.12 1020 10 16.09344 0 0
6:35 am 06:35 Clear 25 -3.8 23 -5 91 91 W 9 15 30.12 1020 10 16.09344 0 0
6:55 am 06:55 Clear 25 -3.8 23 -5.1 91 91 W 8 13 30.12 1020 10 16.09344 0 0
7:15 am 07:15 Clear 26 -3.3 23 -4.9 89 89 W 9 15 30.09 1019 10 16.09344 0 0
7:35 am 07:35 Clear 26 -3.4 23 -5 89 89 W 7 11 30.09 1019 10 16.09344 0 0
7:55 am 07:55 Clear 27 -2.7 24 -4.6 87 87 WSW 6 9 30.09 1019 10 16.09344 0 0
8:15 am 08:15 Sunny 26 -3.5 23 -5.1 89 89 WSW 6 9 30.09 1019 10 16.09344 0 0
8:35 am 08:35 Sunny 26 -3.2 23 -4.9 88 88 WSW 5 7 30.09 1019 10 16.09344 0 0
8:55 am 08:55 Sunny 28 -2.1 24 -4.2 86 86 WSW 8 13 30.09 1019 10 16.09344 0 0
9:15 am 09:15 Sunny 29 -1.6 25 -4.1 83 83 WSW 10 17 30.09 1019 10 16.09344 0 0
9:35 am 09:35 Sunny 31 -0.6 26 -3.6 80 80 WSW 7 11 30.06 1018 10 16.09344 0 0
9:55 am 09:55 Sunny 32 0 27 -3 80 80 WSW 7 11 30.06 1018 10 16.09344 0 0
10:15 am 10:15 Sunny 34 1.3 28 -2.3 77 77 WSW 8 13 30.09 1019 10 16.09344 0 0
10:35 am 10:35 Sunny 37 2.8 29 -1.7 73 73 WSW 10 17 30.06 1018 10 16.09344 0 0
10:55 am 10:55 Sunny 39 4 29 -1.4 68 68 WSW 12 19 30.03 1017 10 16.09344 0 0
11:15 am 11:15 Sunny 42 5.3 30 -1.1 64 64 WSW 12 19 30.03 1017 10 16.09344 0 0
11:35 am 11:35 Sunny 43 6.2 30 -1.3 59 59 WSW 13 20 30 1016 10 16.09344 0 0
11:55 am 11:55 Sunny 44 6.6 30 -1.3 57 57 WSW 10 17 30 1016 10 16.09344 0 0
12:15 pm 12:15 Sunny 45 7.3 30 -1.2 55 55 SW 9 15 29.97 1015 10 16.09344 0 0
12:35 pm 12:35 Sunny 46 8 30 -0.9 54 54 SW 12 19 29.97 1015 10 16.09344 0 0
12:55 pm 12:55 Sunny 48 9 31 -0.6 51 51 WSW 12 19 29.91 1013 10 16.09344 0 0
1:15 pm 13:15 Sunny 49 9.7 31 -0.8 48 48 SW 15 24 29.91 1013 10 16.09344 0 0
1:35 pm 13:35 Sunny 50 10.2 31 -0.6 47 47 SW 14 22 29.91 1013 10 16.09344 0 0
1:55 pm 13:55 Sunny 51 10.8 32 -0.2 47 47 WSW 13 20 29.88 1012 10 16.09344 0 0
2:15 pm 14:15 Sunny 53 11.6 32 -0.1 45 45 SW 13 20 29.85 1011 10 16.09344 0 0
2:35 pm 14:35 Sunny 54 12.2 32 -0.1 43 43 SW 13 20 29.85 1011 10 16.09344 0 0
2:55 pm 14:55 Sunny 55 13 32 -0.1 41 41 WSW 10 17 29.85 1011 10 16.09344 0 0
3:15 pm 15:15 Sunny 57 13.7 30 -1.2 36 36 SW 13 20 29.83 1010 10 16.09344 0 0
3:35 pm 15:35 Sunny 57 14 29 -1.8 34 34 SW 14 22 29.83 1010 10 16.09344 0 0
3:55 pm 15:55 Sunny 56 13.6 28 -2 34 34 SW 10 17 29.85 1011 10 16.09344 0 0
4:15 pm 16:15 Sunny 57 13.7 28 -2 34 34 SW 12 19 29.83 1010 10 16.09344 0 0
4:35 pm 16:35 Sunny 55 12.8 28 -2 36 36 SW 8 13 29.85 1011 10 16.09344 0 0
4:55 pm 16:55 Sunny 53 11.5 28 -2.1 39 39 SW 7 11 29.85 1011 10 16.09344 0 0
5:15 pm 17:15 Clear 50 10.1 28 -2.5 42 42 SW 8 13 29.88 1012 10 16.09344 0 0
5:35 pm 17:35 Clear 48 8.8 28 -2.5 45 45 SW 8 13 29.88 1012 10 16.09344 0 0
5:55 pm 17:55 Clear 47 8.6 27 -2.6 46 46 SSW 5 7 29.88 1012 10 16.09344 0 0
6:15 pm 18:15 Clear 46 7.5 28 -2.5 49 49 SSW 5 7 29.91 1013 10 16.09344 0 0
6:35 pm 18:35 Clear 46 7.9 29 -1.5 52 52 SSW 9 15 29.91 1013 10 16.09344 0 0
6:55 pm 18:55 Clear 45 7.4 30 -1.3 54 54 SSW 9 15 29.91 1013 10 16.09344 0 0
7:15 pm 19:15 Clear 46 7.6 30 -1 55 55 SSW 9 15 29.91 1013 10 16.09344 0 0
7:35 pm 19:35 Clear 46 7.7 31 -0.8 55 55 SSW 12 19 29.91 1013 10 16.09344 0 0
7:55 pm 19:55 Clear 45 7.2 30 -1 56 56 SW 10 17 29.91 1013 10 16.09344 0 0
8:15 pm 20:15 Clear 45 7 30 -0.9 58 58 SW 12 19 29.94 1014 10 16.09344 0 0
8:35 pm 20:35 Clear 44 6.6 30 -1 59 59 SW 9 15 29.94 1014 10 16.09344 0 0
8:55 pm 20:55 Clear 44 6.7 30 -1 58 58 SW 12 19 29.94 1014 10 16.09344 0 0
9:15 pm 21:15 Clear 44 6.4 30 -1.2 59 59 SW 8 13 29.94 1014 10 16.09344 0 0
9:35 pm 21:35 Clear 41 5.1 29 -1.7 62 62 SW 8 13 29.94 1014 10 16.09344 0 0
9:55 pm 21:55 Clear 41 4.8 29 -1.6 64 64 WSW 7 11 29.97 1015 10 16.09344 0 0
10:15 pm 22:15 Clear 42 5.6 29 -1.5 61 61 WSW 7 11 29.94 1014 10 16.09344 0 0
10:35 pm 22:35 Clear 41 4.8 29 -1.9 62 62 WSW 8 13 29.97 1015 10 16.09344 0 0
10:55 pm 22:55 Clear 43 6 29 -1.4 59 59 WSW 9 15 29.94 1014 10 16.09344 0 0
11:15 pm 23:15 Clear 45 7.2 29 -1.6 54 54 W 10 17 29.94 1014 10 16.09344 0 0
11:35 pm 23:35 Clear 43 6.1 28 -2.1 56 56 W 8 13 29.94 1014 10 16.09344 0 0
11:55 pm 23:55 Clear 41 5.2 28 -2.5 58 58 W 7 11 29.94 1014 10 16.09344 0 0

Powered by AerisWeather